Location: Highridge
(54.0333°N, 114.1333°W)
Time: 12:34:46
(UTC+00:00)

Oscar 19 - Pass Details

Date: 30 November 2023
Orbit: 771 x 789 km, 98.9° (Epoch: 01 March)

Event Time Altitude Azimuth Distance (km) Brightness Sun altitude
Rises 13:01:30 0° 14° (NNE) 3,269 13.9 -20.8°
Reaches altitude 10° 13:03:50 10° 12° (NNE) 2,339 13.1 -20.4°
Maximum altitude 13:08:56 65° 292° (WNW) 858 10.5 -19.7°
Drops below altitude 10° 13:14:01 10° 211° (SSW) 2,334 12.9 -19.0°
Sets 13:16:21 0° 209° (SSW) 3,261 13.7 -18.6°
